Meteo Giornale » Osservazioni meteo Stati Uniti (USA) » Doylestown

ore: 17:54 - Osservazioni Meteo Doylestown
Lat. 40° 19' N Lon. 75° 7' W Alt. 120 metri s.l.m.

coperto

24 °C

Coperto

Temp. 24 Ore

19 °C

25 °C

Nord

5.5 Km/h

Dew point 20 °C

Umidità 78 %

Visibilità  10 Km

Il sole sorge alle ore 06:27

Il sole tramonta alle ore 19:34

Data e Ora Cielo e Fenomeni T °C DP °C Um. % Pres. hPa Vis. km Vento km/h
Oggi h: 17:54 coperto Coperto 24 20 78 1018 10 N 5.5
Oggi h: 16:54 molto_nuvoloso Molto Nuvoloso 24 20 78 1019 10 N 0
Oggi h: 15:54 coperto_pioggia Pioggia 24 19 73 1019 10 N 0
Oggi h: 14:54 coperto Coperto 24 19 73 1020 10 N 5.5
Oggi h: 14:46 coperto Coperto 24 20 78 1020 10 N 0
Oggi h: 13:54 molto_nuvoloso Molto Nuvoloso 24 19 73 1020 10 N 0
Oggi h: 12:54 molto_nuvoloso Molto Nuvoloso 24 19 73 1020 10 N 0
Oggi h: 11:54 coperto Coperto 23 19 78 1020 10 N 0
Oggi h: 10:54 coperto Coperto 22 18 78 1021 10 N/NE 7.4
Oggi h: 09:54 coperto Coperto 21 18 82 1020 10 N 0
Oggi h: 08:54 coperto Coperto 21 19 88 1020 10 N 5.5
Oggi h: 07:54 sereno Sereno 19 19 100 1020 10 N 0
Oggi h: 06:54 foschia Foschia 19 18 93 1019 6 N 0
Oggi h: 06:05 foschia Foschia 19 19 100 1019 5 N 0
Oggi h: 05:54 foschia Foschia 19 19 100 1019 5 N 0
Oggi h: 05:46 poco_nuvoloso Poco Nuvoloso 19 19 100 1019 11 N 0
Oggi h: 05:01 foschia Foschia 19 19 100 1019 5 N 0
Oggi h: 04:54 foschia Foschia 19 19 100 1019 5 N 0
Oggi h: 04:44 foschia Foschia 19 19 100 1019 10 N 0
Oggi h: 04:18 foschia Foschia 20 19 93 1019 5 N 0
Oggi h: 04:10 foschia Foschia 20 19 93 1019 2 N 0
Oggi h: 04:02 foschia Foschia 20 19 93 1019 2 N 0
Oggi h: 03:54 foschia Foschia 20 20 100 1019 8 N 0
Oggi h: 02:54 foschia Foschia 21 21 100 1019 8 N 0
Oggi h: 02:05 foschia Foschia 21 21 100 1019 10 N 5.5
Oggi h: 01:54 foschia Foschia 21 21 100 1019 3 N 0
Oggi h: 01:36 foschia Foschia 21 21 100 1019 8 N 0
Oggi h: 01:24 foschia Foschia 21 21 100 1019 2 N 0
Oggi h: 00:54 coperto Coperto 21 21 100 1019 11 N 0
Oggi h: 00:24 foschia Foschia 21 21 100 1019 5 N 0
Oggi h: 00:18 foschia Foschia 21 21 100 1019 5 N 0
Oggi h: 00:05 foschia Foschia 21 21 100 1019 3 N 0
Ieri h: 23:54 molto_nuvoloso Molto Nuvoloso 21 21 100 1019 11 N 0
Ieri h: 23:22 molto_nuvoloso Molto Nuvoloso 22 21 94 1019 10 N 0
Ieri h: 23:13 coperto_pioggia Pioggia 23 21 88 1019 10 N 7.4
Ieri h: 22:58 coperto_pioggia Pioggia Foschia 22 21 94 1019 2 N 0
Ieri h: 22:54 nuvoloso_temporali Temporale nelle vicinanze Pioggia 22 21 94 1019 10 N 0
Ieri h: 22:46 nuvoloso_temporali Temporale nelle vicinanze 22 21 94 1019 14 N 5.5
Ieri h: 22:28 coperto Coperto 22 21 94 1019 10 N 5.5
Ieri h: 21:54 foschia Foschia 22 22 100 1019 10 N 0
Ieri h: 20:54 coperto Coperto 23 21 88 1019 10 N 0
Ieri h: 19:54 coperto Coperto 24 20 78 1018 10 N 0
Ieri h: 18:54 coperto Coperto 25 20 73 1018 10 O/SO 7.4